Weather History for Richmond, KY

Change the Weather History Date:

Monday, May 20, 2013

  Actual Average (KLOZ) Record (KLOZ)
Temperature  
Mean Temperature 74 °F 66 °F  
Max Temperature 84 °F 77 °F 90 °F (1977)
Min Temperature 64 °F 54 °F 37 °F (2002)
Degree Days  
Heating Degree Days 0 3  
Month to date heating degree days 76  
Since 1 July heating degree days 4177  
Cooling Degree Days 9 3  
Month to date cooling degree days 42  
Year to date cooling degree days 68  
Growing Degree Days 24 (Base 50)    
Moisture  
Dew Point 63 °F    
Average Humidity 70    
Maximum Humidity 88    
Minimum Humidity 54    
Precipitation  
Precipitation 0.00 in 0.16 in 1.72 in (1991)
Sea Level Pressure  
Sea Level Pressure 30.01 in    
Wind  
Wind Speed 5 mph (SSW)    
Max Wind Speed 12 mph    
Max Gust Speed 17 mph    
Visibility 10 miles    
Events      
T = Trace of Precipitation, MM = Missing Value Source: NWS Daily Summary

Daily Weather History Graph

Daily Weather History Graph

Search for Another Location

Airport:

Trip Planner

Search our weather history database for the weather conditions in past years. The results will help you decide how hot, cold, wet, or windy it might be!

Date:

Astronomy

May. 20, 2013 Rise Set
Actual Time 6:23 AM EDT 8:44 PM EDT
Civil Twilight 5:54 AM EDT 9:14 PM EDT
Nautical Twilight 5:17 AM EDT 9:51 PM EDT
Astronomical Twilight 4:37 AM EDT 10:31 PM EDT
Moon 3:56 PM EDT (5/20) 3:12 AM EDT (5/20)
Length of Visible Light 15h 20m
Length of Day
14h 20m
Waxing Gibbous, 75% of the Moon is Illuminated
May 20
Waxing Gibbous
May 25
Full
May 31
Last Quarter
Jun 8
New
Jun 16
First Quarter

Hourly Weather History & Observations

Time (EDT) Temp. Heat Index Dew Point Humidity Pressure Visibility Wind Dir Wind Speed Gust Speed Precip Events Conditions
12:15 AM 66.2 °F - 62.6 °F 88% 29.99 in 10.0 mi Calm Calm - N/A   Mostly Cloudy
12:35 AM 66.2 °F - 60.8 °F 83% 30.00 in 10.0 mi Calm Calm - N/A   Overcast
12:55 AM 66.2 °F - 60.8 °F 83% 29.99 in 10.0 mi SSW 3.5 mph - N/A   Overcast
1:15 AM 66.2 °F - 60.8 °F 83% 30.00 in 10.0 mi South 4.6 mph - N/A   Overcast
1:35 AM 66.2 °F - 60.8 °F 83% 30.00 in 10.0 mi SSW 3.5 mph - N/A   Overcast
1:55 AM 66.2 °F - 60.8 °F 83% 30.00 in 10.0 mi South 3.5 mph - N/A   Overcast
2:15 AM 66.2 °F - 60.8 °F 83% 30.00 in 10.0 mi Calm Calm - N/A   Mostly Cloudy
2:35 AM 66.2 °F - 60.8 °F 83% 30.01 in 10.0 mi SSW 5.8 mph - N/A   Overcast
2:55 AM 68.0 °F - 60.8 °F 78% 30.00 in 10.0 mi SSW 6.9 mph - N/A   Overcast
3:15 AM 66.2 °F - 60.8 °F 83% 29.99 in 10.0 mi SSW 5.8 mph - N/A   Mostly Cloudy
3:35 AM 66.2 °F - 60.8 °F 83% 30.00 in 10.0 mi SSW 6.9 mph - N/A   Mostly Cloudy
4:15 AM 66.2 °F - 59.0 °F 78% 29.99 in 10.0 mi South 8.1 mph - N/A   Mostly Cloudy
4:35 AM 66.2 °F - 59.0 °F 78% 29.99 in 10.0 mi SSW 8.1 mph - N/A   Scattered Clouds
4:55 AM 66.2 °F - 59.0 °F 78% 29.99 in 10.0 mi South 5.8 mph - N/A   Scattered Clouds
5:35 AM 64.4 °F - 59.0 °F 83% 30.01 in 10.0 mi South 4.6 mph - N/A   Clear
5:55 AM 64.4 °F - 59.0 °F 83% 30.02 in 10.0 mi South 6.9 mph - N/A   Clear
6:15 AM 64.4 °F - 59.0 °F 83% 30.01 in 10.0 mi South 6.9 mph - N/A   Clear
6:35 AM 64.4 °F - 59.0 °F 83% 30.03 in 10.0 mi SSW 5.8 mph - N/A   Clear
7:15 AM 64.4 °F - 59.0 °F 83% 30.04 in 7.0 mi South 6.9 mph - N/A   Clear
8:15 AM 68.0 °F - 59.0 °F 73% 30.05 in 10.0 mi South 8.1 mph - N/A   Clear
8:35 AM 68.0 °F - 60.8 °F 78% 30.05 in 10.0 mi SSW 5.8 mph - N/A   Clear
8:55 AM 69.8 °F - 60.8 °F 73% 30.05 in 10.0 mi SSW 8.1 mph - N/A   Clear
9:15 AM 71.6 °F - 60.8 °F 69% 30.06 in 10.0 mi SSW 8.1 mph - N/A   Clear
9:35 AM 71.6 °F - 60.8 °F 69% 30.06 in 10.0 mi SSW 8.1 mph - N/A   Clear
10:15 AM 75.2 °F - 62.6 °F 65% 30.07 in 10.0 mi SSW 11.5 mph 16.1 mph N/A   Clear
10:35 AM 75.2 °F - 64.4 °F 69% 30.08 in 10.0 mi SSW 10.4 mph 17.3 mph N/A   Scattered Clouds
10:55 AM 73.4 °F - 64.4 °F 73% 30.08 in 10.0 mi SW 8.1 mph - N/A   Scattered Clouds
11:35 AM 75.2 °F - 64.4 °F 69% 30.08 in 10.0 mi SSW 10.4 mph - N/A   Mostly Cloudy
11:55 AM 75.2 °F - 64.4 °F 69% 30.08 in 10.0 mi SSW 6.9 mph - N/A   Mostly Cloudy
12:15 PM 77.0 °F - 66.2 °F 69% 30.08 in 10.0 mi SW 6.9 mph - N/A   Mostly Cloudy
12:35 PM 77.0 °F - 66.2 °F 69% 30.08 in 10.0 mi WSW 6.9 mph - N/A   Overcast
12:55 PM 78.8 °F - 68.0 °F 69% 30.07 in 10.0 mi SSW 8.1 mph - N/A   Overcast
1:15 PM 78.8 °F - 66.2 °F 65% 30.06 in 10.0 mi South 6.9 mph - N/A   Mostly Cloudy
1:35 PM 78.8 °F - 68.0 °F 69% 30.05 in 10.0 mi SSW 9.2 mph - N/A   Mostly Cloudy
2:15 PM 80.6 °F 83.2 °F 68.0 °F 65% 30.05 in 10.0 mi SSW 5.8 mph - N/A   Mostly Cloudy
2:35 PM 80.6 °F 82.7 °F 66.2 °F 61% 30.05 in 10.0 mi SSW 3.5 mph - N/A   Mostly Cloudy
2:55 PM 80.6 °F 83.2 °F 68.0 °F 65% 30.03 in 10.0 mi South 5.8 mph - N/A   Mostly Cloudy
3:15 PM 82.4 °F 85.4 °F 68.0 °F 62% 30.03 in 10.0 mi SSE 8.1 mph - N/A   Mostly Cloudy
3:35 PM 80.6 °F 82.7 °F 66.2 °F 61% 30.02 in 10.0 mi South 6.9 mph - N/A   Mostly Cloudy
3:55 PM 80.6 °F 82.7 °F 66.2 °F 61% 30.02 in 10.0 mi South 5.8 mph - N/A   Mostly Cloudy
4:15 PM 82.4 °F 84.6 °F 66.2 °F 58% 30.01 in 10.0 mi South 8.1 mph - N/A   Scattered Clouds
4:35 PM 82.4 °F 83.9 °F 64.4 °F 54% 30.00 in 10.0 mi South 8.1 mph - N/A   Clear
4:55 PM 82.4 °F 84.6 °F 66.2 °F 58% 29.99 in 10.0 mi South 5.8 mph - N/A   Scattered Clouds
5:15 PM 84.2 °F 86.6 °F 66.2 °F 55% 29.99 in 10.0 mi South 6.9 mph - N/A   Mostly Cloudy
5:35 PM 82.4 °F 84.6 °F 66.2 °F 58% 29.98 in 10.0 mi SSW 9.2 mph - N/A   Scattered Clouds
5:55 PM 82.4 °F 83.9 °F 64.4 °F 54% 29.98 in 10.0 mi SSW 9.2 mph - N/A   Clear
6:15 PM 82.4 °F 83.9 °F 64.4 °F 54% 29.98 in 10.0 mi SSW 8.1 mph - N/A   Clear
6:35 PM 82.4 °F 83.9 °F 64.4 °F 54% 29.97 in 10.0 mi SSW 8.1 mph - N/A   Clear
6:55 PM 82.4 °F 83.9 °F 64.4 °F 54% 29.96 in 10.0 mi South 6.9 mph - N/A   Clear
7:15 PM 82.4 °F 83.9 °F 64.4 °F 54% 29.97 in 10.0 mi South 5.8 mph - N/A   Clear
7:35 PM 80.6 °F 82.3 °F 64.4 °F 58% 29.97 in 10.0 mi South 6.9 mph - N/A   Clear
7:55 PM 80.6 °F 82.7 °F 66.2 °F 61% 29.97 in 10.0 mi South 4.6 mph - N/A   Clear
8:15 PM 78.8 °F - 64.4 °F 61% 29.97 in 10.0 mi South 3.5 mph - N/A   Clear
8:35 PM 78.8 °F - 64.4 °F 61% 29.97 in 5.0 mi South 3.5 mph - N/A   Clear
8:55 PM 77.0 °F - 64.4 °F 65% 29.97 in 10.0 mi South 3.5 mph - N/A   Clear
9:15 PM 77.0 °F - 64.4 °F 65% 29.96 in 10.0 mi South 3.5 mph - N/A   Mostly Cloudy
9:35 PM 75.2 °F - 64.4 °F 69% 29.96 in 10.0 mi SSE 3.5 mph - N/A   Scattered Clouds
10:15 PM 71.6 °F - 64.4 °F 78% 29.97 in 10.0 mi SSE 5.8 mph - N/A   Clear
10:35 PM 73.4 °F - 64.4 °F 73% 29.97 in 10.0 mi SSE 5.8 mph - N/A   Scattered Clouds
10:55 PM 73.4 °F - 64.4 °F 73% 29.97 in 10.0 mi SSE 6.9 mph - N/A   Clear
11:15 PM 73.4 °F - 64.4 °F 73% 29.97 in 10.0 mi South 9.2 mph - N/A   Clear
11:35 PM 73.4 °F - 64.4 °F 73% 29.97 in 10.0 mi South 8.1 mph - N/A   Scattered Clouds
11:55 PM 73.4 °F - 64.4 °F 73% 29.97 in 10.0 mi South 5.8 mph - N/A   Clear